Weather History for Pittsburgh, PA

Change the Weather History Date:

Sunday, February 17, 2013

  Actual Average Record
Temperature  
Mean Temperature 19 °F 31 °F  
Max Temperature 23 °F 40 °F 68 °F (1883)
Min Temperature 14 °F 23 °F -10 °F (1979)
Degree Days  
Heating Degree Days 46 34  
Month to date heating degree days 637 595  
Since 1 July heating degree days 3737 3904  
Cooling Degree Days 0 0  
Month to date cooling degree days 0 0  
Year to date cooling degree days 0 0  
Moisture  
Dew Point 10 °F    
Average Humidity 68    
Maximum Humidity 84    
Minimum Humidity 51    
Precipitation  
Precipitation 0.07 in 0.08 in 0.82 in (1982)
Month to date precipitation 0.68 1.45  
Year to date precipitation 3.12 4.15  
Snow  
Snow 1.70 in 0.40 in 5.20 in (2003)
Month to date snowfall 10.7 6.2  
Since 1 July snowfall 36.6 28.5  
Snow Depth 0.00 in    
Sea Level Pressure  
Sea Level Pressure 30.07 in    
Wind  
Wind Speed 14 mph (WNW)    
Max Wind Speed 25 mph    
Max Gust Speed 31 mph    
Visibility 6 miles    
Events Snow    
T = Trace of Precipitation, MM = Missing Value Source: NWS Daily Summary

Daily Weather History Graph

Daily Weather History Graph

Search for Another Location

Airport:

Trip Planner

Search our weather history database for the weather conditions in past years. The results will help you decide how hot, cold, wet, or windy it might be!

Date:

Astronomy

Feb. 17, 2013 Rise Set
Actual Time 7:11 AM EST 5:58 PM EST
Civil Twilight 6:43 AM EST 6:26 PM EST
Nautical Twilight 6:11 AM EST 6:58 PM EST
Astronomical Twilight 5:40 AM EST 7:30 PM EST
Moon 11:01 AM EST (2/17) 12:54 AM EST (2/17)
Length of Visible Light 11h 42m
Length of Day
10h 47m
Waxing Crescent, 49% of the Moon is Illuminated
Feb 17
Waxing Crescent
Feb 17
First Quarter
Feb 25
Full
Mar 4
Last Quarter
Mar 11
New

Hourly Weather History & Observations

Time (EST) Temp. Windchill Dew Point Humidity Pressure Visibility Wind Dir Wind Speed Gust Speed Precip Events Conditions
12:06 AM 21.2 °F 9.5 °F 17.6 °F 86% 29.89 in 5.0 mi NW 11.5 mph - 0.00 in Snow Light Snow
12:51 AM 19.9 °F 6.2 °F 15.1 °F 81% 29.96 in 7.0 mi WNW 15.0 mph - 0.00 in Snow Light Snow
1:24 AM 19.4 °F 6.0 °F 15.8 °F 86% 29.89 in 2.0 mi WNW 13.8 mph - 0.00 in Snow Light Snow
1:38 AM 19.4 °F 6.6 °F 15.8 °F 86% 29.89 in 1.2 mi WNW 12.7 mph - 0.00 in Snow Light Snow
1:51 AM 19.9 °F 7.9 °F 16.0 °F 85% 29.97 in 1.2 mi WNW 11.5 mph - 0.00 in Snow Light Snow
1:55 AM 19.4 °F 7.2 °F 15.8 °F 86% 29.90 in 0.8 mi WNW 11.5 mph - 0.00 in Snow Light Snow
2:11 AM 19.4 °F 5.5 °F 15.8 °F 86% 29.90 in 1.2 mi WNW 15.0 mph - 0.00 in Snow Light Snow
2:51 AM 19.0 °F 6.8 °F 15.1 °F 85% 29.98 in 1.0 mi NW 11.5 mph - 0.00 in Snow Light Snow
3:51 AM 17.1 °F 5.0 °F 12.9 °F 84% 29.99 in 2.5 mi West 10.4 mph - 0.01 in Snow Light Snow
4:35 AM 17.6 °F 3.7 °F 12.2 °F 79% 29.92 in 5.0 mi West 13.8 mph - 0.00 in Snow Light Snow
4:51 AM 16.0 °F 2.9 °F 10.9 °F 81% 30.00 in 5.0 mi West 11.5 mph - 0.00 in Snow Light Snow
5:51 AM 16.0 °F 2.9 °F 10.9 °F 81% 30.01 in 3.0 mi West 11.5 mph - 0.00 in Snow Light Snow
6:51 AM 15.1 °F 1.1 °F 10.0 °F 80% 30.03 in 5.0 mi West 12.7 mph 18.4 mph 0.00 in Snow Light Snow
7:30 AM 15.8 °F 1.4 °F 10.4 °F 79% 29.96 in 1.5 mi West 13.8 mph 19.6 mph 0.00 in Snow Light Snow
7:51 AM 15.1 °F 1.8 °F 10.9 °F 84% 30.05 in 2.0 mi West 11.5 mph 20.7 mph 0.00 in Snow Light Snow
8:51 AM 16.0 °F 0.1 °F 10.9 °F 81% 30.07 in 3.0 mi WNW 17.3 mph - 0.00 in Snow Light Snow
9:51 AM 17.1 °F 2.0 °F 10.9 °F 77% 30.09 in 5.0 mi WNW 16.1 mph - 0.00 in Snow Light Snow
10:51 AM 18.0 °F 4.2 °F 10.9 °F 74% 30.11 in 6.0 mi West 13.8 mph 19.6 mph 0.00 in Snow Light Snow
11:30 AM 19.4 °F 4.5 °F 12.2 °F 74% 30.03 in 2.0 mi WNW 17.3 mph - 0.00 in Snow Light Snow
11:51 AM 19.9 °F 6.2 °F 10.9 °F 68% 30.12 in 6.0 mi WNW 15.0 mph - 0.00 in Snow Light Snow
12:51 PM 21.0 °F 5.0 °F 9.0 °F 60% 30.11 in 9.0 mi WNW 21.9 mph 27.6 mph 0.00 in Snow Light Snow
1:26 PM 21.2 °F 7.8 °F 12.2 °F 68% 30.04 in 2.0 mi NW 15.0 mph - 0.00 in Snow Light Snow
1:28 PM 19.4 °F 5.0 °F 12.2 °F 74% 30.04 in 1.0 mi NW 16.1 mph - 0.00 in Snow Light Snow
1:37 PM 19.4 °F 5.0 °F 12.2 °F 74% 30.04 in 6.0 mi NW 16.1 mph 27.6 mph 0.00 in Snow Light Snow
1:51 PM 21.0 °F 5.4 °F 12.9 °F 71% 30.12 in 4.0 mi NNW 20.7 mph - 0.00 in Snow Light Snow
2:25 PM 23.0 °F 7.6 °F 8.6 °F 54% 30.04 in 10.0 mi WNW 21.9 mph - 0.00 in   Scattered Clouds
2:51 PM 21.0 °F 5.7 °F 7.0 °F 55% 30.12 in 10.0 mi WNW 19.6 mph 27.6 mph 0.00 in   Mostly Cloudy
3:51 PM 21.0 °F 6.6 °F 7.0 °F 55% 30.14 in 9.0 mi WNW 17.3 mph 28.8 mph 0.00 in Snow Light Snow
4:51 PM 19.9 °F 4.3 °F 7.0 °F 57% 30.17 in 10.0 mi WNW 19.6 mph 26.5 mph 0.00 in   Overcast
5:51 PM 19.0 °F 2.0 °F 5.0 °F 54% 30.19 in 10.0 mi WNW 23.0 mph - N/A   Mostly Cloudy
6:51 PM 19.0 °F 4.0 °F 5.0 °F 54% 30.22 in 10.0 mi WNW 17.3 mph 24.2 mph N/A   Mostly Cloudy
7:51 PM 18.0 °F 4.8 °F 5.0 °F 57% 30.25 in 10.0 mi WNW 12.7 mph - N/A   Overcast
8:51 PM 17.1 °F 3.6 °F 3.9 °F 56% 30.27 in 10.0 mi WNW 12.7 mph - N/A   Mostly Cloudy
9:51 PM 17.1 °F 7.6 °F 3.0 °F 54% 30.28 in 10.0 mi West 6.9 mph - N/A   Mostly Cloudy
10:51 PM 16.0 °F 10.4 °F 3.9 °F 59% 30.29 in 10.0 mi SW 3.5 mph - N/A   Partly Cloudy